Change the Weather History Date:

Thursday, September 6, 2012

  Actual Average Record
Temperature  
Mean Temperature 93 °F 86 °F  
Max Temperature 101 °F 98 °F 110 °F (1955)
Min Temperature 84 °F 75 °F 54 °F (1970)
Degree Days  
Heating Degree Days 0 0  
Month to date heating degree days 0 0  
Since 1 July heating degree days 0 0  
Cooling Degree Days 28 21  
Month to date cooling degree days 151 132  
Year to date cooling degree days 3301 2981  
Growing Degree Days 42 (Base 50)    
Moisture  
Dew Point 50 °F    
Average Humidity 25    
Maximum Humidity 34    
Minimum Humidity 16    
Precipitation  
Precipitation 0.00 in 0.01 in 0.89 in (1939)
Month to date precipitation T 0.06  
Year to date precipitation 2.70 2.87  
Snow  
Snow 0.00 in 0.00 in 0.00 in ()
Month to date snowfall 0.0 0.0  
Since 1 July snowfall 0.0 0.0  
Since 1 September snowfall 0.0 0.0  
Snow Depth 0.00 in    
Sea Level Pressure  
Sea Level Pressure 29.77 in    
Wind  
Wind Speed 14 mph (SSW)    
Max Wind Speed 24 mph    
Max Gust Speed 32 mph    
Visibility 10 miles    
Events      
T = Trace of Precipitation, MM = Missing Value Source: NWS Daily Summary

Daily Weather History Graph

Daily Weather History Graph

Search for Another Location

Airport or City:

Trip Planner

Search our weather history database for the weather conditions in past years. The results will help you decide how hot, cold, wet, or windy it might be!

Date:

Astronomy

Sep. 06, 2012 Rise Set
Actual Time 6:16 AM PDT 7:00 PM PDT
Civil Twilight 5:50 AM PDT 7:26 PM PDT
Nautical Twilight 5:19 AM PDT 7:56 PM PDT
Astronomical Twilight 4:48 AM PDT 8:28 PM PDT
Moon 10:26 PM PDT (9/6) 12:07 PM PDT (9/6)
Length of Visible Light 13h 35m
Length of Day
12h 43m
Waning Gibbous, 66% of the Moon is Illuminated
Sep 6
Waning Gibbous
Sep 8
Last Quarter
Sep 15
New
Sep 22
First Quarter
Sep 29
Full

Hourly Weather History & Observations

Time (PDT) Temp. Heat Index Dew Point Humidity Pressure Visibility Wind Dir Wind Speed Gust Speed Precip Events Conditions
12:56 AM 88.0 °F - 52.0 °F 29% 29.76 in 10.0 mi South 12.7 mph - N/A   Mostly Cloudy
1:56 AM 86.0 °F 84.0 °F 53.1 °F 32% 29.76 in 10.0 mi South 13.8 mph - N/A   Overcast
2:56 AM 84.9 °F 83.2 °F 53.1 °F 33% 29.75 in 10.0 mi South 13.8 mph - N/A   Mostly Cloudy
3:56 AM 86.0 °F - 52.0 °F 31% 29.76 in 10.0 mi SSW 17.3 mph - N/A   Mostly Cloudy
4:56 AM 84.9 °F - 52.0 °F 32% 29.73 in 10.0 mi SW 15.0 mph - N/A   Mostly Cloudy
5:56 AM 84.0 °F - 52.0 °F 33% 29.75 in 10.0 mi SSW 15.0 mph - N/A   Mostly Cloudy
6:56 AM 84.0 °F - 52.0 °F 33% 29.80 in 10.0 mi SSW 15.0 mph - N/A   Mostly Cloudy
7:56 AM 86.0 °F - 52.0 °F 31% 29.78 in 10.0 mi South 11.5 mph 21.9 mph N/A   Mostly Cloudy
8:56 AM 90.0 °F - 52.0 °F 27% 29.81 in 10.0 mi South 13.8 mph - N/A   Mostly Cloudy
9:56 AM 91.9 °F - 51.1 °F 25% 29.82 in 10.0 mi South 12.7 mph - N/A   Mostly Cloudy
10:56 AM 93.9 °F - 50.0 °F 22% 29.81 in 10.0 mi South 15.0 mph - N/A   Scattered Clouds
11:56 AM 98.1 °F - 48.9 °F 19% 29.79 in 10.0 mi SSW 15.0 mph - N/A   Scattered Clouds
12:56 PM 99.0 °F - 46.9 °F 17% 29.78 in 10.0 mi SSW 13.8 mph 26.5 mph N/A   Scattered Clouds
1:56 PM 99.0 °F - 48.0 °F 18% 29.76 in 10.0 mi South 16.1 mph 24.2 mph N/A   Scattered Clouds
2:56 PM 100.0 °F - 46.9 °F 16% 29.74 in 10.0 mi SSW 16.1 mph 24.2 mph N/A   Scattered Clouds
3:56 PM 100.0 °F - 48.0 °F 17% 29.72 in 10.0 mi SW 13.8 mph 23.0 mph N/A   Scattered Clouds
4:56 PM 99.0 °F - 48.9 °F 18% 29.71 in 10.0 mi SSW 17.3 mph 29.9 mph N/A   Scattered Clouds
5:56 PM 98.1 °F - 48.0 °F 18% 29.71 in 10.0 mi SSW 18.4 mph 26.5 mph N/A   Scattered Clouds
6:56 PM 96.1 °F - 48.0 °F 19% 29.71 in 10.0 mi SW 15.0 mph - N/A   Partly Cloudy
7:56 PM 93.9 °F - 50.0 °F 22% 29.73 in 10.0 mi SSW 12.7 mph - N/A   Partly Cloudy
8:56 PM 93.2 °F - 50.0 °F 23% 29.85 in 10.0 mi SSW 12.7 mph - N/A   Clear
9:56 PM 91.9 °F - 50.0 °F 24% 29.76 in 10.0 mi SSW 12.7 mph - N/A   Clear
10:56 PM 89.6 °F - 51.8 °F 27% 29.86 in 10.0 mi South 10.4 mph - N/A   Partly Cloudy
11:56 PM 89.1 °F - 50.0 °F 26% 29.77 in 10.0 mi South 11.5 mph - N/A   Partly Cloudy